Location: Kott?ru
(16.6209°N, 80.6208°E)
Time: 14:17:52
(UTC+00:00)

Delta 168 - Pass Details

Date: 18 September 2020
Orbit: 394 x 2050 km, 25.3° (Epoch: 29 October)

Event Time Altitude Azimuth Distance (km) Brightness Sun altitude
Rises 13:34:31 0° 294° (WNW) 2,970 8.0 -14.6°
Reaches altitude 10° 13:37:19 10° 302° (WNW) 1,837 6.5 -15.3°
Maximum altitude 13:41:07 39° 12° (NNE) 697 3.3 -16.2°
Enters shadow 13:42:08 30° 54° (NE) 799 3.2 -16.4°
